Regional Weather Roundup
Issued by NWS Mt. Holly, NJ

Home | Current Version | Previous Version | Text Only | Print | Product List | Glossary On
Versions: 1 2 3 4 5 6 7 8 9 10 11 12 13 14 15 16 17 18 19 20 21 22 23 24 25 26 27 28 29 30 31 32 33 34 35 36 37 38 39 40 41 42 43 44 45 46 47 48 49 50
000
ASUS41 KPHI 270312
RWRPHI

REGIONAL WEATHER ROUNDUP
NATIONAL WEATHER SERVICE MOUNT HOLLY NJ
1100 PM EDT THU MAR 26 2015

NOTE:  "FAIR" INDICATES FEW OR NO CLOUDS BELOW 12,000 FEET WITH NO
SIGNIFICANT WEATHER AND/OR OBSTRUCTIONS TO VISIBILITY.

 * = STATION DOES NOT REPORT PRECIPITATION (E.G. RAIN, SNOW, ETC.)
        OR FOG.

NJZ015>026-270400-
SOUTHERN NEW JERSEY

CITY           SKY/WX    TMP DP  RH WIND       PRES   REMARKS
POMONA         CLOUDY    53  53 100 SW3       29.65R FOG
RIO GRANDE*    CLOUDY   N/A N/A N/A SW10      29.67R
MILLVILLE      LGT RAIN  58  54  86 NW7       29.66S
WRIGHTSTOWN    CLOUDY    55  54  94 N10       29.62F
MOUNT HOLLY    CLOUDY    54  50  86 NW5       29.66S
TRENTON        CLOUDY    51  47  86 NW7       29.65F

$$
NJZ001>014-270400-
NORTHERN NEW JERSEY

CITY           SKY/WX    TMP DP  RH WIND       PRES   REMARKS
SUSSEX         CLOUDY    43  40  89 NE6       29.69F
ANDOVER*         N/A     41  40  96 N5        29.67F
MORRISTOWN     LGT RAIN  50  46  87 N8        29.65F
NEWARK         RAIN      51  49  92 N12       29.66S FOG
TETERBORO      LGT RAIN  46  43  87 N8        29.66S
CALDWELL       LGT RAIN  47  43  86 NE8       29.65F
SOMERVILLE     LGT RAIN  48  44  86 NW6       29.64F
ALLAIRE*       CLOUDY    59  52  77 NW18      29.63S
TOMS RIVER*    CLOUDY    61  55  82 NW12      29.64R

$$
PAZ043-044-047-054-055-060>062-066>071-270400-
EASTERN PENNSYLVANIA

CITY           SKY/WX    TMP DP  RH WIND       PRES   REMARKS
PHILADELPHIA   LGT RAIN  54  52  93 N5        29.67S
NORTH PHILA    LGT RAIN  54  47  77 NW9       29.68S
BLUE BELL      CLOUDY    52  46  82 NW7       29.67R
DOYLESTOWN     CLOUDY    46  45  96 N10       29.66S
QUAKERTOWN*    CLOUDY    45  43  93 NW7       29.70S
POTTSTOWN      RAIN      48  44  86 N13       29.71R
LANCASTER      CLOUDY    46  41  82 NW8       29.73S
COATESVILLE    CLOUDY    48  46  93 NW13      29.71R
READING        MOCLDY    45  39  79 NW15      29.73R
ALLENTOWN      CLOUDY    45  40  82 NW7       29.71R
MOUNT POCONO   CLOUDY    37  34  89 N9G17     29.67S WCI  30
HAZLETON       CLOUDY    37  36  93 NW8       29.73S WCI  31
WILKES BARRE   CLOUDY    40  36  86 N9        29.73S WCI  34

$$
DEZALL-MDZ008-012-015-019-020-270400-
DELAWARE AND EASTERN MARYLAND

CITY           SKY/WX    TMP DP  RH WIND       PRES   REMARKS
WILMINGTON     CLOUDY    53  50  89 NW9       29.70R
DOVER          CLOUDY    59  59 100 N12       29.64R
GEORGETOWN     CLOUDY    63  60  90 SW16G25   29.65S
EASTON         CLOUDY    60  60 100 N6        29.73R
PATUXENT       CLOUDY    63  58  83 S5        29.66R
OCEAN CITY     CLOUDY    54  53  97 SW12G20   29.67F
WALLOPS ISLAND CLOUDY    50  50 100 S12       29.69S FOG
CAMBRIDGE      CLOUDY    61  55  82 N7        29.68R
SALISBURY      CLOUDY    63  60  90 SW13      29.66S

$$
PAZ001-021-NYZ056-072-MDZ011-DCZ001-270400-
OTHER NEARBY LOCATIONS

CITY           SKY/WX    TMP DP  RH WIND       PRES   REMARKS
HARRISBURG     LGT RAIN  46  39  76 NW13      29.75S
STATE COLLEGE  CLOUDY    40  35  83 NW9       29.79F WCI  34
WILLIAMSPORT   CLOUDY    39  37  92 SW3       29.80R
BINGHAMTON     CLOUDY    33  32  96 N10       29.74S WCI  25
NEW YORK CITY  RAIN      46  43  89 N10       29.68R FOG
BALTIMORE      RAIN      53  49  86 NW8       29.72R
WASHINGTON DC  LGT RAIN  56  48  74 N14       29.73R

$$


USA.gov is the U.S. government's official web portal to all federal, state and local government web resources and services.